SIRIUS 1 1 26390U 00035A 09183.11345802 -.00000019 +00000-0 +10000-3 0 05039 2 26390 061.5249 255.2015 2727305 270.6784 058.7016 01.00276985032997 SIRIUS 2 1 26483U 00051A 09183.77224816 +.00000023 +00000-0 +10000-3 0 02067 2 26483 063.7287 134.9201 2701802 268.6268 060.5980 01.00281421032334 SIRIUS 3 1 26626U 00077A 09183.44478393 -.00000176 +00000-0 +10000-3 0 04432 2 26626 064.0831 014.9652 2669795 269.8994 059.7937 01.00273246031463 XM-2 1 26724U 01012A 09183.41817083 -.00000204 00000-0 00000+0 0 6171 2 26724 000.0688 269.0757 0000041 189.5537 247.2671 01.00270123 30440 XM-1 1 26761U 01018A 09183.42173838 -.00000204 00000-0 00000+0 0 3999 2 26761 000.0899 269.0424 0000189 081.6373 356.5668 01.00270214 29910 XM-3 1 28626U 05008A 09183.32008841 -.00000204 00000-0 00000+0 0 6087 2 28626 000.0058 005.0405 0000105 061.2080 244.3434 01.00269684 15956 XM-4 1 29520U 06049A 09184.23841057 -.00000023 00000-0 10000-3 0 3869 2 29520 000.0057 002.5922 0000364 163.2614 086.3626 01.00272109 9909